Location: Newark
(25.6108°S, 54.5803°W)
Time: 10:34:38
(UTC+00:00)

Transit 2A - Pass Details

Date: 05 November 2020
Orbit: 595 x 964 km, 66.7° (Epoch: 28 November)

Event Time Altitude Azimuth Distance (km) Brightness Sun altitude
Rises 23:27:33 0° 191° (SSW) 3,254 9.9 -19.4°
Reaches altitude 10° 23:30:05 10° 182° (S) 2,382 8.9 -19.9°
Maximum altitude 23:35:06 35° 117° (ESE) 1,359 7.0 -20.9°
Enters shadow 23:35:57 33° 98° (E) 1,414 6.9 -21.0°
